星链-1755 (STARLINK-1755 )

导读 | 豆包AI

STARLINK-1755是美国太空探索技术公司SpaceX星链星座中的一员,于2020年10月6日发射入轨,旨在为全球提供高速低延迟卫星互联网服务。星链星座通过大规模近地轨道卫星组网,服务覆盖偏远地区与网络基础设施薄弱区域,该卫星是星链网络部署阶段的重要组成部分,助力全球网络互联覆盖能力的提升。

Basic Information
目录编号:
46591
目录名称:
STARLINK-1755
国际标识:
2020-070BM
轨道中心:
EARTH
卫星名称:
星链-1755
卫星全名:
星链-1755 (STARLINK-1755 )
卫星状态:
已陨落 最后检测时间 2025-02-23
发射日期:
2020-10-06 UTC
国别 :
美国 (US)
星等 :
--
Orbit Information
数据来源 国际轨道数据
星历时间: 2025-02-23T16:00:55+0800
轨道信息已过期384天
半长轴: 6544.614km
偏心率: 0.0001102
轨道倾角: 53.028°
近地点辐角 356.876°
升交点赤经 11.507°
平近点角 80.684°
近地点: 165.757km
远地点: 167.201km
周期: 87.818分钟
每日圈数: 16.397465
Detailed Information
固有亮度:
5
最大亮度:
2.5
卫星平台:
Starlink V1.0
覆盖范围:
全球
运营商:
太空探索技术公司
运营商所在国:
美国
制造商(研发单位):
太空探索技术公司
制造商所在国:
美国
使用方式:
暂无
Satellite Introduction
星链(Starlink)计划是由太空探索技术公司(SpaceX)提出的一个巨型低轨卫星互联网星座项目,计划在2019年至2024年间在太空搭建由约1.2万颗卫星组成的“星链”网络,其中1584颗将部署在地球上空550千米处的近地轨道,并从2020年开始工作。该卫星仍在工作。